306P/LINEAR (2009)

Japanese version
Home page
Updated on July 19, 2014

---------------------------------------------------------------------

* Profile

* Orbital Elements

Epoch 2009 Feb. 18.0 TT = JDT 2454880.5
T 2009 Jan. 30.03361 TT                                 MPC
q   1.2467447            (2000.0)            P               Q
n   0.18014995     Peri.    0.69062     +0.95198396     +0.30264352
a   3.1048928      Node   341.48977     -0.28157814     +0.80634093
e   0.5984580      Incl.    8.36562     -0.12016773     +0.50815471
P   5.47
From 253 observations 2003 July 30-2014 July 11, mean residual 0".6.

* Magnitudes Graph

        m1 = 18.5 + 5 log d + 10.0 log r

---------------------------------------------------------------------

The orbital elements are published on M.P.E.C. 2014-N76.
The magnitudes graphs are made with Comet for Windows.

---------------------------------------------------------------------

Copyright(C) Seiichi Yoshida (comet@aerith.net). All rights reserved.